Regional Weather Roundup
Issued by NWS

Home | Current Version | Previous Version | Graphics & Text | Print | Product List | Glossary On
Versions: 1 2 3 4 5 6 7 8 9 10 11 12 13 14 15 16 17 18 19 20 21 22 23 24 25 26 27 28 29 30 31 32 33 34 35 36 37 38 39 40 41 42 43 44 45 46 47 48 49 50
390
ASUS43 KIND 240209
RWRIN

WEATHER ROUNDUP FOR INDIANA
NATIONAL WEATHER SERVICE INDIANAPOLIS IN
1000 PM EDT THU MAR 23 2017

NOTE: "FAIR" INDICATES FEW OR NO CLOUDS BELOW 12,000 FEET WITH NO
SIGNIFICANT WEATHER AND/OR OBSTRUCTIONS TO VISIBILITY.

* - STATION DOES NOT REPORT WEATHER SUCH AS PRECIPITATION OR FOG.

+ - STATION NOT QUALITY CONTROLLED BY THE NATIONAL WEATHER SERVICE.
    USE DATA WITH CAUTION...ESPECIALLY DEWPOINT AND RELATIVE
    HUMIDITY OBSERVATIONS.

INZ001>003-010>013-019-020-240300-
NORTHWEST INDIANA

CITY           SKY/WX    TMP DP  RH WIND       PRES   REMARKS
GARY /AIRPORT/ CLOUDY    48  32  53 SE12      30.08S
KNOX *+        CLOUDY    45  16  31 SE6       30.14R
LA PORTE +     LGT RAIN  44  34  66 SE7       30.12F
MICHIGAN CITY+ LGT RAIN  43  32  65 S6        30.09F
MONTICELLO +   CLOUDY    50  29  44 SE7       30.12R
RENSSELAER +   CLOUDY    50  30  46 SE10      30.11S
VALPARAISO     CLOUDY    48  35  60 SE12      30.10S

$$

LMZ046-743>745-240300-
SOUTHERN LAKE MICHIGAN

STATION/POSITION TIME  TEMP    WIND        PRES    WAVE
                       AIR SEA DIR/SP/G            HT
                 (UTC) (F)     (DEG/KT/KT) (MB)    (FT)
BURNS HARBOR     0140   48     160/ 11/ 18 1019.0R
MICHIGAN CITY    0140   47     150/  6/  8   N/A

$$

INZ004-005-014>016-021>024-240300-
NORTH CENTRAL INDIANA

CITY           SKY/WX    TMP DP  RH WIND       PRES   REMARKS
GOSHEN         CLOUDY    47  25  42 SE12      30.12F
LOGANSPORT +   CLOUDY    48  32  53 S7        30.14R
PERU/GRISSOM   CLOUDY    50  32  50 S9        30.12S
ROCHESTER +    CLOUDY    50  32  50 S6        30.14R
SOUTH BEND     CLOUDY    45  27  49 S14       30.13S
WARSAW +       CLOUDY    46  28  49 SE7       30.13S

$$

INZ006>009-017-018-025>027-240300-
NORTHEAST INDIANA

CITY           SKY/WX    TMP DP  RH WIND       PRES   REMARKS
ANGOLA *+      CLOUDY    45  30  57 S10       30.15F
AUBURN +       LGT RAIN  45  27  49 SE6       30.17F
FORT WAYNE     CLOUDY    47  31  53 SE8       30.17F
HUNTINGTON +   CLOUDY    48  29  49 SE9       30.15F
KENDALLVILLE + CLOUDY    45  26  46 SE13      30.15S

$$

INZ028-029-035-036-043>045-051>053-240300-
WEST CENTRAL INDIANA

CITY           SKY/WX    TMP DP  RH WIND       PRES   REMARKS
CRAWFORDSVL +  PTCLDY    48  30  50 S14       30.13S
GREENCASTLE +  CLOUDY    46  30  53 SE9       30.15F
LAFAYETTE      CLOUDY    51  29  42 S10G22    30.12S
TERRE HAUTE    PTCLDY    50  32  50 SE12      30.14F

$$

INZ030>032-037>040-046>048-054>057-064-065-240300-
CENTRAL INDIANA

CITY           SKY/WX    TMP DP  RH WIND       PRES   REMARKS
CP ATTERBURY + PTCLDY    52  30  43 SE7       30.18F
COLUMBUS       PTCLDY    50  32  50 SE8       30.19F
FISHERS *+     MOCLDY    48  36  61 S7        30.17F
FRANKFORT +    PTCLDY    51  34  52 S9        30.15S
GREENWOOD *+   PTCLDY    52  30  43 S10       30.18F
INDIANAPOLIS   PTCLDY    51  27  39 SE12      30.16F
-EAGLE CREEK   PTCLDY    53  26  35 S8        30.16F
KOKOMO +       CLOUDY    50  33  52 S16       30.14F
MARION +       CLOUDY    48  32  54 S8        30.16S
MT COMFORT *+  CLOUDY    50  34  53 S7        30.18S
SHELBYVILLE    CLOUDY    53  32  44 S12       30.17F
ZIONSVILLE +   MOCLDY    51  29  43 S10       30.16F

$$

INZ033-034-041-042-049-050-058-059-240300-
EAST CENTRAL INDIANA

CITY           SKY/WX    TMP DP  RH WIND       PRES   REMARKS
MUNCIE         CLOUDY    53  28  38 S10       30.15F
RICHMOND +     CLOUDY    46  32  57 S8        30.21F

$$

INZ060-061-067>069-081>083-085>088-240300-
SOUTHWEST INDIANA

CITY           SKY/WX    TMP DP  RH WIND       PRES   REMARKS
EVANSVILLE     CLEAR     50  40  68 CALM      30.17F
HUNTINGBURG *+ PTCLDY    53  40  61 SE8       30.18F
WASHINGTON +   PTCLDY    45  34  65 MISG      30.16F

$$

INZ062-063-066-070>080-084-089>092-240300-
SOUTH CENTRAL AND SOUTHEAST INDIANA

CITY           SKY/WX    TMP DP  RH WIND       PRES   REMARKS
BEDFORD +      PTCLDY    54  30  40 SE6       30.18F
BLOOMINGTON    CLEAR     50  29  44 SE6       30.17F
MADISON *+     MOCLDY    54  32  43 SE5       30.24S
NORTH VERNON + MOCLDY    55  30  38 S6        30.21F
SEYMOUR +      PTCLDY    52  34  50 SE8       30.19F

$$





USA.gov is the U.S. government's official web portal to all federal, state and local government web resources and services.